User: anonymous   Login
Location: Feydey
(46.3431°N, 7.0106°E)
Time: 22:05:28
(UTC+00:00)
Language:

Meteor 2-9 Rocket - Orbit

View from above orbital plane
View from above orbital plane
View from above satellite
View from above satellite

Ground track
Ground track

The orbit data is extracted from the following two-line orbital elements,

1 13719U 82116B   22022.59000784  .00000065  00000-0  26933-4 0  9998
2 13719  81.2557 154.1202 0070747 238.7618 131.7035 14.14687586 17947
Epoch (UTC): 22 January 2022 14:09:36
Eccentricity: 0.0070747
inclination: 81.2557°
perigee height: 792 km
apogee height: 894 km
right ascension of ascending node: 154.1202°
argument of perigee: 238.7618°
revolutions per day: 14.14687586
mean anomaly at epoch: 131.7035°
orbit number at epoch: 1794

The dashed part of the orbit path shows where the satellite is in the earth's shadow,  

DLR